timestamp,wind_dir_avg,wind_spd_avg,wind_spd_max_dir,wind_spd_gust,battery_voltage,lat,long
2020-11-19 00:04:01+00:00,228.0,2.43,231.0,2.77,12.57,47.59359,-54.27349
2020-11-19 00:14:01+00:00,258.0,4.39,262.0,5.03,12.57,47.59359,-54.27349
2020-11-19 00:24:01+00:00,270.0,4.14,273.0,4.67,12.57,47.59359,-54.27349
2020-11-19 00:34:01+00:00,249.0,3.09,248.0,3.57,12.57,47.59359,-54.27349
2020-11-19 00:44:01+00:00,244.0,1.83,252.0,2.18,12.57,47.59359,-54.27349
2020-11-19 00:54:01+00:00,273.0,4.75,273.0,5.26,12.57,47.59359,-54.27349
2020-11-19 01:04:01+00:00,309.0,3.63,301.0,4.62,12.57,47.59359,-54.27349
2020-11-19 01:14:01+00:00,327.0,2.18,329.0,2.56,12.57,47.59359,-54.27349
2020-11-19 01:24:01+00:00,336.0,3.14,336.0,3.76,12.57,47.59359,-54.27349
2020-11-19 01:34:01+00:00,321.0,2.31,324.0,2.66,12.57,47.59359,-54.27349
2020-11-19 01:44:01+00:00,321.0,1.91,324.0,2.29,12.57,47.59359,-54.27349
2020-11-19 01:54:01+00:00,309.0,3.06,315.0,3.66,12.57,47.59359,-54.27349
2020-11-19 02:04:01+00:00,302.0,3.47,303.0,3.86,12.57,47.59359,-54.27349
2020-11-19 02:14:01+00:00,328.0,2.57,329.0,3.33,12.57,47.59359,-54.27349
2020-11-19 02:24:01+00:00,327.0,3.94,332.0,4.45,12.57,47.59359,-54.27349
2020-11-19 02:34:01+00:00,329.0,4.34,327.0,4.79,12.57,47.59359,-54.27349
2020-11-19 02:44:01+00:00,323.0,4.31,324.0,4.81,12.57,47.59359,-54.27349
2020-11-19 02:54:01+00:00,320.0,4.43,320.0,4.9,12.57,47.59359,-54.27349
2020-11-19 03:04:01+00:00,320.0,4.12,322.0,4.81,12.57,47.59359,-54.27349
2020-11-19 03:14:01+00:00,319.0,4.58,318.0,5.32,12.49,47.59359,-54.27349
2020-11-19 03:24:01+00:00,329.0,5.1,326.0,5.54,12.49,47.59359,-54.27349
2020-11-19 03:34:01+00:00,327.0,5.06,330.0,5.61,12.49,47.59359,-54.27349
2020-11-19 03:44:01+00:00,329.0,6.08,333.0,6.88,12.49,47.59359,-54.27349
2020-11-19 03:54:01+00:00,331.0,6.34,333.0,6.83,12.49,47.59359,-54.27349
2020-11-19 04:04:01+00:00,338.0,5.16,333.0,5.99,12.49,47.59359,-54.27349
2020-11-19 04:14:01+00:00,346.0,6.48,344.0,7.3,12.49,47.59359,-54.27349
2020-11-19 04:24:01+00:00,341.0,5.47,342.0,6.31,12.49,47.59359,-54.27349
2020-11-19 04:34:01+00:00,347.0,5.59,336.0,6.47,12.49,47.59359,-54.27349
2020-11-19 04:44:01+00:00,353.0,5.2,355.0,5.99,12.49,47.59359,-54.27349
2020-11-19 04:54:01+00:00,347.0,4.84,348.0,5.56,12.49,47.59359,-54.27349
2020-11-19 05:04:01+00:00,353.0,5.86,351.0,6.59,12.49,47.59359,-54.27349
2020-11-19 05:14:01+00:00,353.0,5.17,351.0,5.99,12.49,47.59359,-54.27349
2020-11-19 05:24:01+00:00,349.0,5.43,344.0,6.48,12.49,47.59359,-54.27349
2020-11-19 05:34:01+00:00,330.0,4.78,325.0,5.3,12.49,47.59359,-54.27349
2020-11-19 05:44:01+00:00,328.0,5.08,331.0,5.56,12.49,47.59359,-54.27349
2020-11-19 05:54:01+00:00,336.0,4.92,330.0,6.02,12.49,47.59359,-54.27349
2020-11-19 06:04:01+00:00,328.0,4.53,329.0,5.4,12.49,47.59359,-54.27349
2020-11-19 06:14:01+00:00,326.0,5.47,324.0,6.24,12.49,47.59359,-54.27349
2020-11-19 06:24:01+00:00,333.0,5.1,329.0,5.98,12.49,47.59359,-54.27349
2020-11-19 06:34:01+00:00,336.0,5.35,340.0,6.33,12.49,47.59359,-54.27349
2020-11-19 06:44:01+00:00,327.0,6.1,325.0,7.1,12.49,47.59359,-54.27349
2020-11-19 06:54:01+00:00,318.0,6.69,325.0,8.32,12.49,47.59359,-54.27349
2020-11-19 07:04:01+00:00,319.0,7.78,316.0,8.89,12.49,47.59359,-54.27349
2020-11-19 07:14:01+00:00,315.0,7.89,308.0,9.48,12.49,47.59359,-54.27349
2020-11-19 07:24:01+00:00,317.0,8.32,308.0,9.86,12.49,47.59359,-54.27349
2020-11-19 07:34:01+00:00,314.0,8.25,308.0,10.15,12.49,47.59359,-54.27349
2020-11-19 07:44:01+00:00,303.0,8.33,304.0,9.6,12.49,47.59359,-54.27349
2020-11-19 07:54:01+00:00,311.0,6.15,314.0,7.58,12.49,47.59359,-54.27349
2020-11-19 08:04:01+00:00,310.0,4.92,317.0,5.94,12.49,47.59359,-54.27349
2020-11-19 08:14:01+00:00,298.0,4.57,297.0,5.74,12.49,47.59359,-54.27349
2020-11-19 08:24:01+00:00,291.0,4.96,301.0,5.59,12.49,47.59359,-54.27349
2020-11-19 08:34:01+00:00,287.0,5.72,287.0,7.18,12.49,47.59359,-54.27349
2020-11-19 08:44:01+00:00,299.0,4.73,304.0,5.73,12.49,47.59359,-54.27349
2020-11-19 08:54:01+00:00,291.0,3.34,302.0,3.98,12.49,47.59359,-54.27349
2020-11-19 09:04:01+00:00,263.0,4.22,273.0,5.23,12.49,47.59359,-54.27349
2020-11-19 09:14:01+00:00,279.0,4.69,276.0,5.14,12.41,47.59359,-54.27349
2020-11-19 09:24:01+00:00,263.0,4.67,255.0,6.64,12.41,47.59359,-54.27349
2020-11-19 09:34:01+00:00,263.0,4.83,261.0,5.69,12.41,47.59359,-54.27349
2020-11-19 09:44:01+00:00,279.0,5.73,278.0,6.77,12.41,47.59359,-54.27349
2020-11-19 09:54:01+00:00,302.0,6.04,301.0,7.01,12.41,47.59359,-54.27349
2020-11-19 10:04:01+00:00,300.0,6.65,302.0,8.76,12.41,47.59359,-54.27349
2020-11-19 10:14:01+00:00,287.0,4.45,286.0,6.05,12.41,47.59359,-54.27349
2020-11-19 10:24:01+00:00,300.0,5.29,308.0,5.96,12.41,47.59359,-54.27349
2020-11-19 10:34:01+00:00,306.0,4.88,310.0,5.37,12.41,47.59359,-54.27349
2020-11-19 10:44:01+00:00,301.0,5.14,301.0,5.8,12.41,47.59359,-54.27349
2020-11-19 10:54:01+00:00,311.0,5.4,308.0,6.85,12.41,47.59359,-54.27349
2020-11-19 11:04:01+00:00,301.0,6.51,302.0,8.72,12.41,47.59359,-54.27349
2020-11-19 11:14:01+00:00,301.0,7.73,302.0,9.88,12.49,47.59359,-54.27349
2020-11-19 11:24:01+00:00,298.0,8.32,296.0,10.02,12.49,47.59359,-54.27349
2020-11-19 11:34:01+00:00,300.0,7.41,304.0,8.86,12.49,47.59359,-54.27349
2020-11-19 11:44:01+00:00,286.0,7.3,284.0,8.8,12.49,47.59359,-54.27349
2020-11-19 11:54:01+00:00,299.0,7.78,289.0,9.72,12.49,47.59359,-54.27349
2020-11-19 12:04:01+00:00,291.0,9.33,292.0,10.87,12.49,47.59359,-54.27349
2020-11-19 12:14:01+00:00,295.0,9.21,300.0,10.33,14.08,47.59359,-54.27349
2020-11-19 12:24:01+00:00,301.0,9.2,302.0,10.22,14.08,47.59359,-54.27349
2020-11-19 12:34:01+00:00,312.0,9.51,312.0,11.44,14.08,47.59359,-54.27349
2020-11-19 12:44:01+00:00,302.0,9.79,304.0,12.12,14.08,47.59359,-54.27349
2020-11-19 12:54:01+00:00,296.0,10.32,298.0,12.05,14.08,47.59359,-54.27349
2020-11-19 13:04:01+00:00,302.0,8.25,298.0,10.9,14.08,47.59359,-54.27349
2020-11-19 13:14:01+00:00,321.0,7.7,322.0,8.51,13.76,47.59359,-54.27349
2020-11-19 13:24:01+00:00,327.0,7.83,329.0,9.09,13.76,47.59359,-54.27349
2020-11-19 13:34:01+00:00,320.0,7.99,318.0,9.81,13.76,47.59359,-54.27349
2020-11-19 13:44:01+00:00,309.0,7.12,312.0,8.38,13.76,47.59359,-54.27349
2020-11-19 13:54:01+00:00,307.0,5.81,308.0,6.52,13.76,47.59359,-54.27349
2020-11-19 14:04:01+00:00,321.0,6.61,335.0,9.62,13.76,47.59359,-54.27349
2020-11-19 14:14:01+00:00,305.0,8.34,302.0,10.68,14.24,47.59359,-54.27349
2020-11-19 14:24:01+00:00,304.0,9.69,307.0,11.21,14.24,47.59359,-54.27349
2020-11-19 14:34:01+00:00,312.0,6.15,299.0,7.06,14.24,47.59359,-54.27349
2020-11-19 14:44:01+00:00,301.0,9.05,304.0,10.66,14.24,47.59359,-54.27349
2020-11-19 14:54:01+00:00,301.0,7.41,298.0,8.97,14.24,47.59359,-54.27349
2020-11-19 15:04:01+00:00,299.0,9.71,303.0,11.49,14.24,47.59359,-54.27349
2020-11-19 15:14:01+00:00,308.0,8.81,305.0,11.67,13.76,47.59359,-54.27349
2020-11-19 15:24:01+00:00,312.0,7.54,305.0,8.87,13.76,47.59359,-54.27349
2020-11-19 15:34:01+00:00,287.0,5.59,286.0,6.45,13.76,47.59359,-54.27349
2020-11-19 15:44:01+00:00,319.0,8.79,319.0,10.67,13.76,47.59359,-54.27349
2020-11-19 15:54:01+00:00,315.0,7.55,316.0,9.71,13.76,47.59359,-54.27349
2020-11-19 16:04:01+00:00,329.0,10.79,330.0,12.16,13.76,47.59359,-54.27349
2020-11-19 16:14:01+00:00,318.0,9.37,314.0,11.22,13.76,47.59359,-54.27349
2020-11-19 16:24:01+00:00,320.0,6.88,325.0,8.42,13.76,47.59359,-54.27349
2020-11-19 16:34:01+00:00,310.0,7.13,308.0,9.07,13.76,47.59359,-54.27349
2020-11-19 16:44:01+00:00,314.0,6.93,312.0,9.36,13.76,47.59359,-54.27349
2020-11-19 16:54:01+00:00,310.0,7.19,309.0,8.69,13.76,47.59359,-54.27349
2020-11-19 17:04:01+00:00,305.0,7.98,301.0,9.2,13.76,47.59359,-54.27349
2020-11-19 17:14:01+00:00,299.0,6.67,301.0,8.0,13.92,47.59359,-54.27349
2020-11-19 17:24:01+00:00,292.0,5.09,301.0,5.89,13.92,47.59359,-54.27349
2020-11-19 17:34:01+00:00,311.0,7.01,308.0,8.77,13.92,47.59359,-54.27349
2020-11-19 17:44:01+00:00,306.0,7.96,302.0,9.16,13.92,47.59359,-54.27349
2020-11-19 17:54:01+00:00,318.0,7.39,311.0,8.5,13.92,47.59359,-54.27349
2020-11-19 18:04:01+00:00,299.0,6.49,303.0,7.56,13.92,47.59359,-54.27349
2020-11-19 18:14:01+00:00,293.0,8.3,285.0,11.29,13.84,47.59359,-54.27349
2020-11-19 18:24:01+00:00,302.0,7.68,303.0,10.45,13.84,47.59359,-54.27349
2020-11-19 18:34:01+00:00,297.0,7.47,300.0,8.79,13.84,47.59359,-54.27349
2020-11-19 18:44:01+00:00,290.0,7.9,292.0,10.09,13.84,47.59359,-54.27349
2020-11-19 18:54:01+00:00,283.0,14.55,283.0,18.93,13.84,47.59359,-54.27349
2020-11-19 19:04:01+00:00,271.0,10.48,265.0,12.15,13.84,47.59359,-54.27349
2020-11-19 19:14:01+00:00,270.0,9.84,270.0,11.28,13.84,47.59359,-54.27349
2020-11-19 19:24:01+00:00,270.0,10.29,270.0,11.77,13.84,47.59359,-54.27349
2020-11-19 19:34:01+00:00,283.0,8.94,296.0,11.4,13.84,47.59359,-54.27349
2020-11-19 19:44:01+00:00,274.0,7.62,275.0,10.1,13.84,47.59359,-54.27349
2020-11-19 19:54:01+00:00,275.0,8.28,274.0,10.59,13.84,47.59359,-54.27349
2020-11-19 20:04:01+00:00,270.0,10.82,270.0,12.14,13.84,47.59359,-54.27349
2020-11-19 20:14:01+00:00,287.0,11.95,284.0,13.48,13.21,47.59359,-54.27349
2020-11-19 20:24:01+00:00,311.0,7.23,304.0,8.43,13.21,47.59359,-54.27349
2020-11-19 20:34:01+00:00,297.0,7.42,303.0,8.79,13.21,47.59359,-54.27349
2020-11-19 20:44:01+00:00,298.0,10.04,291.0,12.54,13.21,47.59359,-54.27349
2020-11-19 20:54:01+00:00,290.0,11.8,288.0,14.27,13.21,47.59359,-54.27349
2020-11-19 21:04:01+00:00,281.0,10.32,287.0,11.45,13.21,47.59359,-54.27349
2020-11-19 21:14:01+00:00,276.0,10.39,277.0,11.36,12.73,47.59359,-54.27349
2020-11-19 21:24:01+00:00,295.0,7.18,290.0,8.88,12.73,47.59359,-54.27349
2020-11-19 21:34:01+00:00,276.0,8.34,277.0,9.93,12.73,47.59359,-54.27349
2020-11-19 21:44:01+00:00,281.0,9.69,292.0,12.54,12.73,47.59359,-54.27349
2020-11-19 21:54:01+00:00,281.0,7.16,274.0,8.37,12.73,47.59359,-54.27349
2020-11-19 22:04:01+00:00,294.0,6.86,288.0,9.87,12.73,47.59359,-54.27349
2020-11-19 22:14:01+00:00,290.0,8.69,286.0,14.84,12.65,47.59359,-54.27349
2020-11-19 22:24:01+00:00,289.0,8.09,287.0,10.24,12.65,47.59359,-54.27349
2020-11-19 22:34:01+00:00,280.0,8.13,278.0,10.02,12.65,47.59359,-54.27349
2020-11-19 22:44:01+00:00,285.0,8.51,284.0,10.19,12.65,47.59359,-54.27349
2020-11-19 22:54:01+00:00,278.0,9.54,279.0,11.65,12.65,47.59359,-54.27349
2020-11-19 23:04:01+00:00,288.0,9.21,297.0,11.13,12.65,47.59359,-54.27349
2020-11-19 23:14:01+00:00,282.0,11.18,284.0,13.57,12.57,47.59359,-54.27349
2020-11-19 23:24:01+00:00,281.0,10.32,274.0,12.42,12.57,47.59359,-54.27349
2020-11-19 23:34:01+00:00,283.0,12.37,284.0,15.62,12.57,47.59359,-54.27349
2020-11-19 23:44:01+00:00,287.0,9.62,281.0,13.4,12.57,47.59359,-54.27349
2020-11-19 23:54:01+00:00,287.0,10.99,285.0,14.39,12.57,47.59359,-54.27349
